Preview of NWS' New Version of Forecast
This preview is not operational and should not be used for support decisions.

Regional Weather Roundup (RWR)

Issued by National Weather Service (NWS)

                            
000
ASUS45 KBOI 200310
RWRID 

IDAHO REGIONAL WEATHER ROUNDUP
NATIONAL WEATHER SERVICE BOISE ID
800 PM MST TUE FEB 19 2019

NOTE: "FAIR" INDICATES FEW OR NO CLOUDS BELOW 12000 FEET
WITH NO SIGNIFICANT WEATHER AND/OR OBSTRUCTIONS TO VISIBILITY

IDZ012-014-200400-
SOUTHWEST IDAHO

  
CITY           SKY/WX    TMP DP  RH WIND       PRES   REMARKS
BOISE          CLOUDY    29  24  82 SE6       29.92F WCI  23          
CALDWELL       CLOUDY    31  26  82 E6        29.94F WCI  25          
MOUNTAIN HOME  LGT SNOW  28  28 100 CALM      29.93F FOG              
$$

IDZ016-017-200400-
SOUTHCENTRAL IDAHO

  
CITY           SKY/WX    TMP DP  RH WIND       PRES   REMARKS
BURLEY         LGT SNOW  24  20  84 W10       29.86F FOG     WCI  14  
JEROME         LGT SNOW  24  22  91 SW8       29.89F VSB 1   WCI  15  
TWIN FALLS     LGT SNOW  23  19  85 SW14      29.88F FOG     WCI  11  
$$

IDZ019>023-200400-
SOUTHEAST IDAHO

  
CITY           SKY/WX    TMP DP  RH WIND       PRES   REMARKS
IDAHO FALLS    CLOUDY    15  11  83 SW7       29.85F WCI   5          
POCATELLO      CLOUDY    20  13  74 SW8       29.86F WCI  10          
REXBURG        LGT SNOW  13   9  84 N3        29.84S FOG              
$$

IDZ006-010-011-018-031-032-200400-
CENTRAL IDAHO MOUNTAINS

  
CITY           SKY/WX    TMP DP  RH WIND       PRES   REMARKS
MCCALL         LGT SNOW  18  14  84 CALM      29.78F FOG              
STANLEY          N/A     13   7  77 CALM      29.75F                  
SALMON         LGT SNOW  22  14  71 CALM      29.82S                  
CHALLIS        CLOUDY    20   7  57 CALM      29.77F                  
$$

IDZ002-004-006-007-026-200400-
NORTHERN IDAHO

  
CITY           SKY/WX    TMP DP  RH WIND       PRES   REMARKS
LEWISTON       LGT SNOW  27  24  89 CALM      29.92F FOG              
LOWELL           N/A     28  26  92 CALM      29.95                   
COEUR D'ALENE  LGT SNOW  22  20  92 CALM      29.87F FOG              
MULLAN PASS    LGT SNOW  12   8  84 CALM      29.64F VSB 1            
$$